#timestamp,LO_Frequency,Hit,StdDev 
1590879615.1,286047000.3,N
1590879635.8,286046998.2,N
1590879655.7,286047001.0,N
1590879675.5,286046998.8,N
1590879695.4,286047001.9,N
1590879715.2,286047001.8,N
1590879735.0,286047002.2,N
1590879735.9,286047002.2,N
1590879755.8,286046999.8,N
1590879775.6,286047000.8,N
1590879795.4,286047001.1,N
1590879845.3,286046999.4,E
1590879855.2,286046998.9,N
1590879875.1,286047000.9,P
1590879876.0,286047000.9,N
1590879895.8,286046998.9,N
1590879915.7,286046998.8,N
1590879935.5,286046998.7,N
1590879955.3,286046997.1,N
1590879975.2,286046995.4,Y
1590879995.0,286046997.0,P
1590879995.9,286046997.0,N
1590880015.8,286046995.5,P
1590880035.6,286046998.0,N
1590880055.4,286046997.1,N
1590880075.3,286046996.9,N
1590880095.1,286046997.5,N
1590880115.8,286046997.7,N
1590880135.7,286046997.2,Y
1590880155.5,286047003.5,P
1590880175.4,286047005.8,N
1590880195.2,286047003.9,N
1590880215.0,286047003.9,N
1590880215.9,286047003.9,N
1590880235.8,286047005.6,N
1590880255.6,286047003.1,N
1590880275.5,286047003.5,N
1590880295.3,286047001.4,N
1590880315.1,286047002.4,N
1590880335.9,286046999.9,N
1590880355.7,286047001.2,N
1590880375.5,286047001.2,N
1590880395.4,286046999.1,N
1590880415.2,286046999.3,N
1590880435.1,286046996.9,N
1590880436.0,286046996.9,N
1590880455.8,286047001.1,N
1590880475.6,286046998.1,N
1590880495.5,286046999.4,N
1590880515.3,286046999.2,N
1590880535.2,286046996.9,N
1590880555.9,286046998.1,N
1590880575.7,286046998.7,N
1590880595.6,286047000.4,N
1590880615.4,286047000.4,N
1590880635.2,286047002.0,N
1590880655.1,286047005.4,N
1590880656.0,286047005.4,N
1590880675.8,286047007.6,N
1590880695.7,286047005.5,N
1590880715.5,286047001.4,N
1590880735.3,286047002.0,N
1590880755.2,286047004.3,N
1590880775.0,286047003.4,N
1590880775.9,286047003.4,N
1590880795.8,286047003.1,N
1590880815.6,286047001.6,N
1590880835.4,286047004.4,N
1590880855.3,286047003.7,N
1590880875.1,286047004.1,N
1590880895.8,286047004.2,N
1590880915.7,286047005.9,N
1590880935.5,286047005.8,N
1590880955.4,286047005.6,N
1590880975.2,286047003.6,N
1590880995.0,286047003.1,N
1590880995.9,286047003.1,N
1590881015.8,286047005.2,N
1590881035.6,286047006.4,N
1590881055.5,286047006.3,N
1590881075.3,286047007.3,N
1590881095.1,286047007.4,Y
1590881115.9,286047002.0,P
1590881135.7,286047001.1,N
1590881155.6,286046998.8,N
1590881175.4,286046996.5,N
1590881195.2,286046994.9,N
1590881215.1,286046995.6,N
1590881216.0,286046995.6,N
1590881235.8,286046998.0,N
1590881255.6,286046998.7,N
1590881275.5,286047000.4,N
1590881295.3,286047002.6,N
1590881315.2,286047002.2,N
1590881335.9,286047002.2,N
1590881355.7,286047000.4,N
1590881375.6,286047000.2,N
1590881395.4,286047002.1,N
1590881415.3,286047004.2,N
1590881435.1,286047004.4,N
1590881436.0,286047004.4,N
1590881455.8,286047003.1,N
1590881475.7,286047003.0,N
1590881495.5,286047002.9,N
1590881515.3,286047005.6,N
1590881535.2,286047004.1,N
1590881555.0,286047001.6,N
1590881555.9,286047001.6,N
1590881575.8,286047003.2,N
1590881595.6,286047002.6,N
1590881615.4,286047000.3,N
1590881635.3,286047002.7,N
1590881655.1,286047000.3,N
1590881675.8,286046999.1,N
1590881695.7,286047000.9,N
1590881715.5,286047004.2,N
1590881735.4,286047003.2,N
1590881755.2,286047005.5,N
1590881775.0,286047003.3,N
1590881775.9,286047003.3,N
1590881795.8,286047003.3,N
1590881815.6,286047004.8,N
1590881835.4,286047007.2,Y
1590881855.3,286047003.5,P
1590881875.1,286047005.6,P
1590881895.9,286047004.9,P
1590881915.7,286047009.0,Y
1590881935.5,286047005.8,P
1590881955.4,286047004.5,P
1590881975.2,286047005.3,P
1590881995.1,286047004.4,Y
1590881996.0,286047004.4,P
1590882015.8,286046999.3,N
1590882035.6,286046998.7,N
1590882055.5,286047000.3,N
1590882075.3,286047002.6,N
1590882095.1,286046999.3,N
1590882115.9,286046998.0,N
1590882135.7,286046995.5,N
1590882155.5,286046997.2,N
1590882175.4,286046999.0,N
1590882195.2,286047000.9,N
1590882215.1,286047000.8,N
1590882216.0,286047000.8,N
1590882235.8,286047000.8,N
1590882255.6,286047002.8,N
1590882275.5,286046998.3,N
1590882295.3,286046998.7,N
1590882315.2,286046997.3,N
1590882335.9,286046993.3,N
1590882355.7,286046994.3,N
1590882375.6,286046994.8,N
1590882395.4,286046992.5,N
1590882415.2,286046991.9,N
1590882435.1,286046994.2,N
1590882436.0,286046994.2,N
1590882455.8,286046992.0,N
1590882475.7,286046993.7,N
1590882495.5,286046996.4,N
1590882515.3,286046996.3,N
1590882535.2,286046993.8,N
1590882555.0,286046995.8,N
1590882555.9,286046995.8,N
1590882575.8,286046995.4,N
1590882595.6,286046993.7,N
1590882615.4,286046993.4,N
1590882635.3,286046993.3,N
1590882655.1,286046993.5,N
1590882675.8,286046993.5,N
1590882695.7,286046996.3,N
1590882715.5,286046994.1,N
1590882735.4,286046994.5,N
1590882755.2,286046992.3,N
1590882775.0,286046991.8,Y
1590882775.9,286046991.8,P
1590882795.8,286046997.7,N
1590882815.6,286046999.6,N
1590882835.5,286046999.1,N
1590882855.3,286046996.6,N
1590882875.1,286046999.6,N
1590882895.9,286046997.1,N
1590882915.7,286046993.5,N
1590882935.6,286046994.5,N
1590882955.4,286046993.3,N
1590882975.2,286046998.0,N
1590882995.1,286046997.5,N
1590882996.0,286046997.5,N
1590883015.8,286046998.0,N
1590883035.6,286046995.5,N
1590883055.5,286046995.8,N
1590883075.3,286046994.5,N
1590883095.2,286046995.8,N
1590883115.9,286046993.4,Y
1590883135.7,286046999.6,P
1590883155.6,286046996.8,N
1590883175.4,286046996.7,N
1590883195.2,286046997.7,N
